Lake Eufaula Weather Center

Moon Phase Calendar



Lake Eufaula Water Level
Online Cameras

 


      

Current Conditions in Georgetown
1/24/2021 10:23:42 AM

53°F
Feels Like 47
Clouds
Humidity
58%
Pressure
30.21"
Wind
5.8 mph (ESE)
Dew Point
38°F
UV Index
2/10 (Low)
Visibility
6 mi

Hourly Forecast

Date & Time Sun, Jan 24
10:00 AM
Sun, Jan 24
11:00 AM
Sun, Jan 24
12:00 PM
Sun, Jan 24
1:00 PM
Sun, Jan 24
2:00 PM
Sun, Jan 24
3:00 PM
Sun, Jan 24
4:00 PM
Sun, Jan 24
5:00 PM
Sun, Jan 24
6:00 PM
Sun, Jan 24
7:00 PM
Sun, Jan 24
8:00 PM
Sun, Jan 24
9:00 PM
Sun, Jan 24
10:00 PM
Sun, Jan 24
11:00 PM
Mon, Jan 25
12:00 AM
Mon, Jan 25
1:00 AM
Mon, Jan 25
2:00 AM
Mon, Jan 25
3:00 AM
Mon, Jan 25
4:00 AM
Mon, Jan 25
5:00 AM
Mon, Jan 25
6:00 AM
Mon, Jan 25
7:00 AM
Mon, Jan 25
8:00 AM
Mon, Jan 25
9:00 AM
Mon, Jan 25
10:00 AM
Mon, Jan 25
11:00 AM
Mon, Jan 25
12:00 PM
Mon, Jan 25
1:00 PM
Mon, Jan 25
2:00 PM
Mon, Jan 25
3:00 PM
Mon, Jan 25
4:00 PM
Mon, Jan 25
5:00 PM
Mon, Jan 25
6:00 PM
Mon, Jan 25
7:00 PM
Mon, Jan 25
8:00 PM
Mon, Jan 25
9:00 PM
Mon, Jan 25
10:00 PM
Mon, Jan 25
11:00 PM
Tue, Jan 26
12:00 AM
Tue, Jan 26
1:00 AM
Tue, Jan 26
2:00 AM
Tue, Jan 26
3:00 AM
Tue, Jan 26
4:00 AM
Tue, Jan 26
5:00 AM
Tue, Jan 26
6:00 AM
Tue, Jan 26
7:00 AM
Tue, Jan 26
8:00 AM
Tue, Jan 26
9:00 AM
Condition
Clouds

Clouds

Clouds

Clouds

Clouds

Clouds

Clouds

Clouds

Clouds

Clouds

Clouds

Clouds

Clouds

Clouds

Clouds

Clouds

Clouds

Clouds

Clouds

Clouds

Clouds

Clouds

Clouds

Clouds

Clouds

Clouds

Clouds

Clouds

Clouds

Clouds

Clouds

Clouds

Clouds

Clouds

Clouds

Clouds

Clouds

Rain

Clouds

Clouds

Clouds

Clouds

Rain

Clouds

Clouds

Clouds

Clouds

Rain
Temperature 53°F55°F59°F62°F63°F62°F63°F62°F61°F60°F60°F60°F60°F58°F59°F59°F59°F58°F57°F57°F57°F58°F59°F60°F63°F67°F70°F72°F72°F71°F70°F68°F67°F67°F65°F65°F66°F67°F67°F67°F66°F66°F67°F67°F66°F66°F65°F68°F
Feels Like 45°F49°F54°F59°F60°F59°F61°F61°F60°F59°F59°F59°F57°F56°F57°F58°F57°F56°F55°F55°F55°F57°F58°F58°F61°F65°F67°F68°F68°F68°F68°F67°F65°F65°F64°F64°F65°F65°F65°F65°F65°F66°F66°F66°F66°F67°F66°F67°F
Cloudiness 90%54%34%32%99%99%99%99%100%100%99%98%99%87%90%91%100%100%100%100%100%100%100%100%100%100%100%100%100%100%100%100%100%100%20%23%43%57%65%65%21%39%52%54%46%48%68%55%
Visibility 6 mi6 mi6 mi6 mi6 mi6 mi6 mi6 mi6 mi6 mi6 mi6 mi6 mi6 mi6 mi6 mi6 mi6 mi6 mi6 mi6 mi6 mi6 mi6 mi6 mi6 mi6 mi6 mi6 mi6 mi6 mi6 mi6 mi6 mi6 mi6 mi6 mi6 mi6 mi6 mi6 mi6 mi6 mi6 mi6 mi6 mi6 mi6 mi
Precipitation 0%0%0%0%0%0%0%0%0%0%0%0%0%0%0%0%0%0%0%0%0%0%0%0%0%0%0%0%0%0%0%0%0%0%3%2%0%21%1%0%4%26%40%39%43%34%46%58%
Humidity 58%63%66%67%69%72%74%78%83%85%86%86%84%89%88%89%91%95%97%97%97%97%96%94%88%80%71%67%67%70%75%80%82%85%91%94%91%91%91%92%94%93%92%93%95%95%95%89%
Dew Point 38°F43°F48°F51°F52°F53°F54°F56°F56°F56°F56°F56°F55°F55°F55°F56°F57°F56°F56°F56°F56°F57°F58°F58°F60°F61°F61°F61°F61°F61°F62°F62°F62°F62°F63°F63°F64°F64°F64°F64°F64°F64°F65°F65°F64°F64°F64°F65°F
Pressure 30.21"30.21"30.18"30.15"30.12"30.09"30.09"30.09"30.09"30.12"30.12"30.12"30.09"30.09"30.09"30.06"30.06"30.03"30.03"30"30"30"30"30"29.97"29.97"29.97"29.94"29.91"29.91"29.88"29.91"29.91"29.91"29.91"29.91"29.91"29.88"29.88"29.88"29.88"29.85"29.85"29.85"29.88"29.88"29.91"29.94"
Wind Speed 8.8 mph8 mph8.1 mph7.3 mph6.8 mph7.2 mph5.8 mph5.1 mph4.4 mph4.1 mph3.4 mph5.3 mph8.7 mph6 mph6 mph5.3 mph6.9 mph5.9 mph5.8 mph6.3 mph5.4 mph5.9 mph6.4 mph7.5 mph9.1 mph9.9 mph12.3 mph13 mph13.2 mph12 mph10.1 mph9.2 mph10.5 mph11.1 mph9.7 mph8.9 mph10.5 mph11.6 mph12.7 mph12 mph9.7 mph9 mph10.1 mph10.6 mph8.3 mph7.3 mph7.7 mph11.3 mph
Wind
Direction
123°
ESE
126°
SE
138°
SE
146°
SE
142°
SE
138°
SE
145°
SE
150°
SSE
155°
SSE
153°
SSE
143°
SE
132°
SE
135°
SE
134°
SE
147°
SSE
162°
SSE
164°
SSE
165°
SSE
164°
SSE
164°
SSE
168°
SSE
165°
SSE
165°
SSE
165°
SSE
170°
S
174°
S
177°
S
189°
S
202°
SSW
213°
SSW
220°
SW
202°
SSW
192°
SSW
192°
SSW
198°
SSW
200°
SSW
196°
SSW
194°
SSW
193°
SSW
197°
SSW
201°
SSW
211°
SSW
209°
SSW
210°
SSW
229°
SW
225°
SW
209°
SSW
217°
SW

Daily Forecast

Date High Low Precip. Humidity
Today
Jan 24

Clouds
63 °F
49 °F
0%
66%
Monday
Jan 25

Rain
72 °F
57 °F
21%
71%
Tuesday
Jan 26

Rain
75 °F
65 °F
100%
75%
Wednesday
Jan 27

Rain
74 °F
58 °F
100%
86%
Thursday
Jan 28

Clouds
52 °F
41 °F
40%
54%
Friday
Jan 29

Clear
56 °F
33 °F
0%
40%
Saturday
Jan 30

Clear
60 °F
39 °F
0%
44%
Sunday
Jan 31

Rain
64 °F
50 °F
89%
85%
Monday
Feb 1

Clear
64 °F
48 °F
5%
54%
Tuesday
Feb 2

Clouds
66 °F
45 °F
0%
47%
Wednesday
Feb 3

Clouds
67 °F
48 °F
0%
48%
Thursday
Feb 4

Clouds
73 °F
53 °F
0%
61%
Friday
Feb 5

Clouds
74 °F
55 °F
0%
60%
Saturday
Feb 6

Rain
78 °F
68 °F
100%
79%
Sunday
Feb 7

Rain
78 °F
67 °F
100%
72%
Monday
Feb 8

Rain
71 °F
64 °F
100%
87%


Temperature 8-14 Day Outlook



Precipitation 8-14 Day Outlook




Quick Links
Lake Eufaula News
Lake Eufaula Photos
Lake Eufaula Videos




About Us
Contact Us
Site Map
Search Site
Advertise With Us
   
www.LakeEufaula.info
THE LAKE EUFAULA WEBSITE

Copyright 2021, Lakes Online
Privacy    |    Legal